User: anonymous   Login
Location: Newark
(21.1200°N, 73.4000°E)
Time: 21:36:38
(UTC+00:00)
Language:

Explorer 7 - Orbit

View from above orbital plane
View from above orbital plane
View from above satellite
View from above satellite

Ground track
Ground track

The orbit data is extracted from the following two-line orbital elements,

1    22U 59009A   20026.40093801 -.00000072 +00000-0 +18219-4 0  9997
2    22 050.2843 053.2191 0139650 072.2128 289.4001 14.95026491448972
Epoch (UTC): 26 January 2020 09:37:21
Eccentricity: 0.0139650
inclination: 50.2843°
perigee height: 485 km
apogee height: 679 km
right ascension of ascending node: 53.2191°
argument of perigee: 72.2128°
revolutions per day: 14.95026491
mean anomaly at epoch: 289.4001°
orbit number at epoch: 44897

The dashed part of the orbit path shows where the satellite is in the earth's shadow,  

DLR